Seatac, Washington, United States
Lat: 47.45N, Lon: 122.32W
Wx Zone: WAZ508
Local Info
Past Weather Observations for Today

NOTE: This archive is for the closest National Weather Service station to Seatac. Information may differ from the station used for current weather conditions.

Click here for Long-term Archive

Time Weather Temperature Dewpoint Humidity Pressure Winds Precip Visibility
14:19
Overcast
Light Rain
52°F / 11°C 50°F / 10°C 94% 30.18 in
(1022 mb)
SSE 8.1 mph
(SSE 13 kph)
0.01 in
(0.25 mm)
1 1/2SM
14:00
Overcast
Light Rain
50°F / 10°C 48°F / 9°C 94% 30.18 in
(1022 mb)
Calm 0.00 in
(0.00 mm)
1 1/2SM
13:53
Overcast
Fog And Mist
50°F / 10°C 48°F / 9°C 94% 30.21 in
(1023 mb)
Variable 3.5 mph
(Variable 6 kph)
0.04 in
(1.02 mm)
1 1/2SM
13:22
Overcast
Light Rain
50°F / 10°C 48°F / 9°C 94% 30.21 in
(1023 mb)
Calm 0.03 in
(0.76 mm)
1 1/2SM
13:17
Overcast
Light Rain
50°F / 10°C 46°F / 8°C 88% 30.21 in
(1023 mb)
Calm 0.03 in
(0.76 mm)
1SM
12:55
Overcast
Light Rain
50°F / 10°C 46°F / 8°C 88% 30.21 in
(1023 mb)
E 4.6 mph
(E 7 kph)
0.00 in
(0.00 mm)
1 1/4SM
12:53
Overcast
Light Rain
50°F / 10°C 46°F / 8°C 88% 30.21 in
(1023 mb)
E 4.6 mph
(E 7 kph)
0.05 in
(1.27 mm)
1 1/4SM
11:53
Overcast
Light Rain
48°F / 9°C 46°F / 8°C 94% 30.21 in
(1023 mb)
N 4.6 mph
(N 7 kph)
0.03 in
(0.76 mm)
1 1/4SM
10:53
Overcast
Drizzle
48°F / 9°C 48°F / 9°C 100% 30.21 in
(1023 mb)
Calm 0.02 in
(0.51 mm)
1 1/4SM
10:48
Overcast
Fog And Mist
48°F / 9°C 48°F / 9°C 100% 30.21 in
(1023 mb)
Calm 0.02 in
(0.51 mm)
1 1/4SM
10:25
Overcast
Light Rain
48°F / 9°C 46°F / 8°C 94% 30.24 in
(1024 mb)
N 3.5 mph
(N 6 kph)
0.01 in
(0.25 mm)
1SM
09:53
Overcast
Fog And Mist
48°F / 9°C 46°F / 8°C 94% 30.21 in
(1023 mb)
N 6.9 mph
(N 11 kph)
0.04 in
(1.02 mm)
1 1/2SM
09:36
Overcast
Light Rain
50°F / 10°C 48°F / 9°C 94% 30.21 in
(1023 mb)
N 3.5 mph
(N 6 kph)
0.03 in
(0.76 mm)
1SM
09:05
Overcast
Light Rain
50°F / 10°C 48°F / 9°C 94% 30.21 in
(1023 mb)
Calm 0.01 in
(0.25 mm)
1SM
08:53
Overcast
Fog And Mist
50°F / 10°C 48°F / 9°C 94% 30.21 in
(1023 mb)
NNW 3.5 mph
(NNW 6 kph)
0.01 in
(0.25 mm)
1 1/2SM
08:36
Overcast
Fog And Mist
50°F / 10°C 48°F / 9°C 94% 30.21 in
(1023 mb)
Calm 0.01 in
(0.25 mm)
1 1/2SM
07:53
Overcast
Light Rain
50°F / 10°C 48°F / 9°C 94% 30.21 in
(1023 mb)
N 6.9 mph
(N 11 kph)
0.07 in
(1.78 mm)
1 1/2SM
07:38
Overcast
Light Rain
50°F / 10°C 48°F / 9°C 94% 30.21 in
(1023 mb)
N 5.8 mph
(N 9 kph)
0.03 in
(0.76 mm)
2SM
06:53
Overcast
Light Rain
50°F / 10°C 48°F / 9°C 94% 30.18 in
(1022 mb)
NE 10.4 mph
(NE 17 kph)
0.12 in
(3.05 mm)
2SM
06:09
Overcast
Light Rain
52°F / 11°C 50°F / 10°C 94% 30.18 in
(1022 mb)
N 5.8 mph
(N 9 kph)
0.05 in
(1.27 mm)
2SM
05:58
Overcast
Light Rain
52°F / 11°C 52°F / 11°C 100% 30.15 in
(1021 mb)
Calm 0.01 in
(0.25 mm)
1SM
05:53
Overcast
Light Rain
52°F / 11°C 50°F / 10°C 94% 30.15 in
(1021 mb)
Calm 0.18 in
(4.57 mm)
3/4SM
05:43
Overcast
Light Rain
52°F / 11°C 52°F / 11°C 100% 30.15 in
(1021 mb)
N 5.8 mph
(N 9 kph)
0.15 in
(3.81 mm)
3/4SM
04:53
Overcast
Rain
54°F / 12°C 52°F / 11°C 94% 30.15 in
(1021 mb)
SSW 5.8 mph
(SSW 9 kph)
0.07 in
(1.78 mm)
3/4SM
04:28
Overcast
Light Rain
54°F / 12°C 52°F / 11°C 94% 30.15 in
(1021 mb)
SW 5.8 mph
(SW 9 kph)
0.03 in
(0.76 mm)
1SM
03:53
Overcast
Light Rain
54°F / 12°C 52°F / 11°C 94% 30.15 in
(1021 mb)
SW 3.5 mph
(SW 6 kph)
0.03 in
(0.76 mm)
9SM
02:53
Overcast
54°F / 12°C 52°F / 11°C 94% 30.15 in
(1021 mb)
SW 6.9 mph
(SW 11 kph)
0.01 in
(0.25 mm)
10SM
02:37
Overcast
Light Rain
54°F / 12°C 52°F / 11°C 94% 30.15 in
(1021 mb)
SSE 10.4 mph
(SSE 17 kph)
0.01 in
(0.25 mm)
10SM
01:53
Overcast
54°F / 12°C 52°F / 11°C 94% 30.12 in
(1020 mb)
SSE 17.3 mph
(SSE 28 kph)
- 10SM
00:53
Overcast
54°F / 12°C 52°F / 11°C 94% 30.12 in
(1020 mb)
SSE 18.4 mph
(SSE 30 kph)
- 10SM
00:14
Overcast
54°F / 12°C 52°F / 11°C 94% 30.12 in
(1020 mb)
SSE 19.6 mph
(SSE 32 kph)
- 10SM
Time Weather Temperature Dewpoint Humidity Pressure Winds Precip Visibility


Weather for websites

WeatherForYou.com, LLC is not responsible for any damages or problems caused by this service. Current weather conditions are obtained from the closest station including government and personal stations which may have varying degrees of accuracy. Weather forecasts are derived from the NOAA NDFD. Like all things, this site belongs to Jesus Christ... He just trusts me to maintain it. If you have any questions or comments email webmaster@weatherforyou.com

Copyright © 2014, WeatherForYou.com LLC. All rights reserved.